Regional Weather Roundup
Issued by NWS

Home | Current Version | Previous Version | Graphics & Text | Print | Product List | Glossary On
Versions: 1 2 3 4 5 6 7 8 9 10 11 12 13 14 15 16 17 18 19 20 21 22 23 24 25 26 27 28 29 30 31 32 33 34 35 36 37 38 39 40 41 42 43 44 45 46 47 48 49 50
767
ASUS45 KBOI 222110
RWRID

IDAHO REGIONAL WEATHER ROUNDUP
NATIONAL WEATHER SERVICE BOISE ID
200 PM MST WED FEB 22 2017

NOTE: "FAIR" INDICATES FEW OR NO CLOUDS BELOW 12000 FEET
WITH NO SIGNIFICANT WEATHER AND/OR OBSTRUCTIONS TO VISIBILITY

IDZ012-014-222200-
SOUTHWEST IDAHO


CITY           SKY/WX    TMP DP  RH WIND       PRES   REMARKS
BOISE          CLOUDY    39  28  64 NW8       29.92F WCI  33
CALDWELL       CLOUDY    40  30  67 W9        29.94F WCI  34
MOUNTAIN HOME  CLOUDY    42  28  58 NW13      29.90F
$$

IDZ016-017-222200-
SOUTHCENTRAL IDAHO


CITY           SKY/WX    TMP DP  RH WIND       PRES   REMARKS
BURLEY         CLOUDY    43  21  41 NE5       29.85F
JEROME           N/A    N/A N/A N/A MISG      29.88F
TWIN FALLS     CLOUDY    37  25  61 SE7       29.88F WCI  32
$$

IDZ019>023-222200-
SOUTHEAST IDAHO


CITY           SKY/WX    TMP DP  RH WIND       PRES   REMARKS
IDAHO FALLS    MOSUNNY   35  27  72 NW7       29.88F WCI  29
POCATELLO      MOSUNNY   39  26  59 NW9       29.88F WCI  33
REXBURG        SUNNY     36  25  64 W9        29.87F WCI  29
$$

IDZ006-010-011-018-031-032-222200-
CENTRAL IDAHO MOUNTAINS


CITY           SKY/WX    TMP DP  RH WIND       PRES   REMARKS
MCCALL         CLOUDY    32  23  69 W7        29.84F WCI  26
HAILEY         PTSUNNY   32  19  59 CALM      29.86F
STANLEY          N/A     29  14  53 N5        29.82F WCI  24
SALMON         CLOUDY    39  27  60 N7        29.85F WCI  34
CHALLIS        SUNNY     34  17  50 SE3       29.85F
$$

IDZ002-004-006-007-026-222200-
NORTHERN IDAHO


CITY           SKY/WX    TMP DP  RH WIND       PRES   REMARKS
LEWISTON       CLOUDY    42  31  64 NE6       30.04F
LOWELL           N/A     40  34  79 S5        30.05F
COEUR D`ALENE  CLOUDY    35  31  85 S5        30.03F WCI  31
MULLAN PASS    FOG       28  25  88 NW5       29.86F VSB 1/2 WCI  23
$$




USA.gov is the U.S. government's official web portal to all federal, state and local government web resources and services.